World > North America > United States > Ohio

Cutler, Ohio Regional Weather

Lat: 39.35N, Lon: 81.79W
Wx Zone: OHZ076Web Search

Helpful Tip: Type the letters wx in the search engine next time you need to find us.

Feedback


°F Click to change Cutler hourly weather to Imperial units.Click to change Cutler hourly weather to Metric units. °C
Cutler Weather Map
UTC Time: 5/18/2021, 14:31
Your Time:

Cutler, OH Regional Weather

Expires:202105181500;;312702
ASUS41 KCLE 181412
RWRCLE
OHIO REGIONAL WEATHER ROUNDUP
NATIONAL WEATHER SERVICE WILMINGTON, OH
1000 AM EDT TUE MAY 18 2021

NOTE: "FAIR" INDICATES FEW OR NO CLOUDS BELOW 12,000 FEET WITH NO
SIGNIFICANT WEATHER AND/OR OBSTRUCTIONS TO VISIBILITY.


OHZ036-037-039>041-045>050-054>059-063>069-073>076-082>088-181500-
  CENTRAL AND SOUTHEAST OHIO
  
CITY           SKY/WX    TMP DP  RH WIND       PRES   REMARKS
COLUMBUS       PTSUNNY   68  53  58 SE7       30.33S                  
OSU AIRPORT    FAIR      68  55  63 SE9       30.34S                  
BOLTON FIELD   SUNNY     64  55  72 SE7       30.34S                  
RICKENBACK AFB FAIR      66  55  66 SE7       30.33S                  
NEWARK         FAIR      69  57  65 CALM      30.34S                  
MARION         NOT AVBL                                               
LANCASTER      FAIR      67  56  67 E8        30.34S                  
ZANESVILLE     FAIR      68  55  63 E7        30.35S                  
NEW PHILLY     FAIR      67  53  61 CALM      30.37S                  
$$
  

SKY/WX - Weather  TMP - Temperature  DP - Dew Point  RH - Relative Humidity
WIND - Wind Direction/Speed PRES - Barometric Pressure VSB - Visibility
WCI - Wind Chill Index E13G22 Wind - East Wind 13 mph/Gusts of 22 mph